DateTimeUTC,F1_A11,F1_S11,BsB_S11,BsG_S11,BsR_S11,BbsB_S11,BbsG_S11,BbsR_S11,BaB_A11,BaG_A11,BaR_A11,Tu_S11,T_S11,Uu_S11,U_S11,P_S11,T1_A11
2021-07-01T04:00:00Z,00000200,20000000,,,,,,,0000.19,0000.35,-000.28,18.7,25.6,02.9,01.9,0669.2,31.1
2021-07-01T04:01:00Z,00000200,20000000,,,,,,,0000.04,0000.05,0000.02,18.7,25.6,02.9,01.9,0669.3,31.1
2021-07-01T04:02:00Z,00000200,20000000,,,,,,,-000.06,0000.08,-000.01,18.7,25.6,02.9,01.9,0669.3,31.2
2021-07-01T04:03:00Z,00000200,60000000,,,,,,,-000.26,-000.26,-000.45,18.8,25.6,02.9,01.9,0669.3,31.2
2021-07-01T04:04:00Z,00000200,40000000,0000.77,-000.08,0000.30,-000.27,0000.06,0000.15,0000.13,0000.17,0000.13,18.9,25.5,02.9,01.9,0670.2,31.1
2021-07-01T04:05:00Z,00000200,00000000,0000.25,0000.13,0000.17,0000.15,0000.33,0000.25,-000.13,-000.53,0000.07,18.9,25.4,03.0,02.0,0670.3,31.1
2021-07-01T04:06:00Z,00000200,00000000,0000.56,-000.02,0000.23,0000.49,0000.29,0000.27,-000.13,0000.39,0000.08,18.8,25.4,03.0,02.0,0670.3,31.1
2021-07-01T04:07:00Z,00000200,00000000,0000.38,0000.10,-000.02,0000.24,-000.01,0000.12,-000.03,0000.02,-000.04,18.7,25.3,03.0,02.0,0670.3,31.1
2021-07-01T04:08:00Z,00000200,00000000,0000.34,0000.11,0000.25,0000.54,0000.11,0000.01,0000.22,-000.12,0000.34,18.7,25.3,03.1,02.1,0670.3,31.1
2021-07-01T04:09:00Z,00000200,00000000,0000.60,0000.19,-000.17,0000.03,0000.09,-000.08,0000.29,0000.29,-000.08,18.7,25.2,03.1,02.1,0670.3,31.1
2021-07-01T04:10:00Z,00000200,00000000,0000.33,0000.06,-000.08,0000.59,-000.04,0000.20,-000.21,-000.25,-000.08,18.7,25.2,03.0,02.1,0670.3,31.1
2021-07-01T04:11:00Z,00000200,00000000,-000.29,0000.67,-000.04,0000.29,-000.13,-000.02,0000.12,0000.19,0000.06,18.8,25.3,03.1,02.1,0670.3,31.1
2021-07-01T04:12:00Z,00000200,00000000,0000.09,-000.17,0000.01,0000.65,0000.25,-000.24,0000.07,0000.18,0000.23,18.9,25.3,03.1,02.1,0670.3,31.1
2021-07-01T04:13:00Z,00000200,00000000,0000.78,0000.12,0000.09,-000.17,-000.10,-000.01,0000.18,0000.03,0000.02,18.9,25.3,03.1,02.1,0670.4,31.2
2021-07-01T04:14:00Z,00000200,00000000,0001.02,-000.12,0000.26,0000.21,0000.05,0000.21,-000.15,-000.20,-000.13,19.0,25.4,03.1,02.1,0670.4,31.1
2021-07-01T04:15:00Z,00000200,00000000,0000.65,0000.17,0000.42,-000.15,0000.26,0000.19,0000.06,0000.51,-000.02,19.0,25.4,03.0,02.0,0670.4,31.2
2021-07-01T04:16:00Z,00000200,00000000,-000.08,0000.22,0000.44,-000.35,0000.26,0000.02,-000.12,-000.24,0000.27,19.1,25.4,03.0,02.0,0670.5,31.2
2021-07-01T04:17:00Z,00000200,00000000,0000.49,0000.29,0000.24,-000.13,-000.20,0000.32,0000.18,0000.25,-000.06,19.2,25.4,02.9,02.0,0670.5,31.2
2021-07-01T04:18:00Z,00000200,00000000,0000.25,0000.04,0000.14,-000.13,0000.12,0000.18,-000.46,-000.56,-000.23,19.2,25.5,02.9,01.9,0670.5,31.2
2021-07-01T04:19:00Z,00000200,00000000,0000.71,0000.21,0000.09,0000.05,0000.34,-000.08,-000.17,-000.36,-000.30,19.1,25.5,02.8,01.9,0670.5,31.1
2021-07-01T04:20:00Z,00000200,00000000,0000.90,0000.06,0000.12,0000.61,0000.13,0000.13,0000.10,0000.44,0000.02,19.0,25.4,02.7,01.8,0670.5,31.1
2021-07-01T04:21:00Z,00000200,00000000,0000.88,-000.13,0000.13,-000.12,-000.10,-000.08,-000.10,0000.07,-000.09,19.0,25.4,02.7,01.8,0670.4,31.1
2021-07-01T04:22:00Z,00000200,00000000,0000.19,0000.07,0000.18,-000.01,-000.05,-000.01,0000.31,-000.32,0000.10,18.9,25.3,02.6,01.8,0670.4,31.1
2021-07-01T04:23:00Z,00000200,00000000,0000.49,0000.24,0000.22,0000.11,0000.21,0000.29,-000.37,-000.30,-000.18,18.8,25.3,02.6,01.7,0670.5,31.1
2021-07-01T04:24:00Z,00000200,00000000,0000.20,0000.36,0000.39,0000.11,0000.19,0000.30,-000.01,0000.22,-000.02,18.8,25.3,02.6,01.8,0670.5,31.1
2021-07-01T04:25:00Z,00000200,00000000,0000.01,0000.26,0000.19,-000.32,0000.12,-000.10,0000.06,-000.03,-000.07,18.8,25.3,02.5,01.7,0670.5,31.1
2021-07-01T04:26:00Z,00000200,00000000,0000.47,0000.20,0000.29,0000.10,0000.18,0000.41,-000.22,-000.01,0000.28,18.9,25.3,02.5,01.7,0670.5,31.1
2021-07-01T04:27:00Z,00000200,00000000,0000.13,0000.21,0000.32,-000.11,-000.04,0000.08,-000.00,-000.33,-000.25,18.9,25.3,02.4,01.6,0670.5,31.1
2021-07-01T04:28:00Z,00000200,00000000,0000.57,0000.27,0000.24,0000.31,-000.14,-000.04,0000.10,0000.38,0000.36,19.0,25.4,02.4,01.6,0670.6,31.1
2021-07-01T04:29:00Z,00000200,00000000,-000.12,0000.21,0000.46,0000.29,0000.25,0000.21,-000.29,-000.12,-000.21,19.0,25.4,02.3,01.6,0670.6,31.1
2021-07-01T04:30:00Z,00000200,01000000,0000.64,-000.09,-000.01,0000.34,0000.03,0000.12,0000.04,-000.08,0000.03,19.1,25.4,02.2,01.5,0670.6,31.1
2021-07-01T04:31:00Z,00000200,00000000,0000.05,0000.03,-000.24,0000.18,0000.23,0000.21,-000.16,-000.14,-000.22,19.0,25.4,02.3,01.5,0670.6,31.1
2021-07-01T04:32:00Z,00000200,00000000,0000.22,0000.22,0000.16,0000.14,0000.03,0000.25,0000.18,0000.11,0000.08,19.0,25.4,02.3,01.6,0670.6,31.1
2021-07-01T04:33:00Z,00000200,00000000,0000.02,0000.49,0000.16,0000.25,0000.22,0000.09,-000.43,-000.21,-000.21,18.9,25.3,02.3,01.5,0670.6,31.1
2021-07-01T04:34:00Z,00000200,00000000,0000.63,0000.24,-000.02,-000.07,-000.22,0000.14,0000.28,0000.11,-000.17,18.8,25.3,02.2,01.5,0670.6,31.1
2021-07-01T04:35:00Z,00000200,00000000,0000.86,0000.02,0000.12,0000.03,0000.29,0000.23,0000.13,0000.20,0000.55,18.7,25.2,02.3,01.5,0670.6,31.0
2021-07-01T04:36:00Z,00000200,00000000,0000.26,0000.48,0000.19,-000.35,0000.05,0000.10,0000.10,-000.13,-000.16,18.6,25.2,02.3,01.5,0670.5,31.0
2021-07-01T04:37:00Z,00000200,00000000,0000.20,0000.19,0000.16,-000.23,0000.32,0000.11,0000.07,-000.04,0000.11,18.6,25.1,02.3,01.6,0670.5,31.0
2021-07-01T04:38:00Z,00000200,00000000,0000.43,0000.24,-000.03,-000.20,0000.45,0000.02,0000.20,-000.03,0000.46,18.5,25.1,02.4,01.6,0670.5,31.0
2021-07-01T04:39:00Z,00000200,00000000,0000.04,0000.47,0000.03,-000.09,0000.07,0000.14,0000.13,0000.43,-000.08,18.5,25.1,02.5,01.7,0670.5,31.0
2021-07-01T04:40:00Z,00000200,00000000,0000.49,-000.11,-000.11,0000.31,0000.09,0000.05,-000.15,-000.12,-000.01,18.6,25.1,02.5,01.7,0670.5,31.1
2021-07-01T04:41:00Z,00000200,00000000,-000.07,-000.05,0000.38,0000.20,0000.18,0000.14,0000.07,0000.32,0000.22,18.6,25.1,02.6,01.7,0670.6,31.1
2021-07-01T04:42:00Z,00000200,00000000,0001.09,-000.10,0000.01,-000.02,-000.02,-000.15,0000.18,0000.29,-000.15,18.7,25.1,02.6,01.7,0670.6,31.1
2021-07-01T04:43:00Z,00000200,00000000,0000.63,0000.15,0000.22,-000.08,0000.04,0000.32,0000.38,0000.20,0000.05,18.8,25.1,02.6,01.8,0670.6,31.1
2021-07-01T04:44:00Z,00000200,00000000,0000.19,0000.20,0000.05,-000.25,0000.09,0000.39,-000.27,-000.33,0000.12,18.8,25.2,02.7,01.8,0670.6,31.1
2021-07-01T04:45:00Z,00000200,00000000,-000.26,0000.24,0000.19,-000.28,0000.25,-000.19,0000.01,-000.06,0000.01,18.9,25.2,02.6,01.8,0670.6,31.1
2021-07-01T04:46:00Z,00000200,00000000,0000.63,0000.06,0000.41,0000.39,0000.02,0000.01,0000.23,0000.06,-000.08,18.9,25.2,02.6,01.8,0670.7,31.1
2021-07-01T04:47:00Z,00000200,00000000,0001.25,-000.35,0000.30,0000.13,0000.34,0000.21,-000.09,0000.08,0000.38,19.0,25.3,02.6,01.8,0670.7,31.1
2021-07-01T04:48:00Z,00000200,00000000,0000.45,0000.23,0000.25,-000.15,0000.08,0000.12,0000.19,0000.02,-000.32,19.1,25.3,02.5,01.7,0670.7,31.1
2021-07-01T04:49:00Z,00000200,00000000,0000.22,0000.43,0000.05,-000.03,0000.38,0000.11,-000.21,0000.01,-000.18,19.1,25.3,02.5,01.7,0670.7,31.1
2021-07-01T04:50:00Z,00000200,00000000,0000.05,0000.29,0000.08,0000.33,0000.04,0000.09,0000.17,0000.05,0000.20,19.0,25.3,02.5,01.7,0670.7,31.1
2021-07-01T04:51:00Z,00000200,00000000,0000.56,0000.45,0000.50,0000.23,0000.43,0000.18,-000.26,0000.04,-000.35,18.9,25.3,02.5,01.7,0670.7,31.1
2021-07-01T04:52:00Z,00000200,00000000,0000.45,0000.11,0000.40,0000.41,0000.06,-000.04,-000.07,-000.18,-000.00,18.9,25.2,02.5,01.7,0670.7,31.1
2021-07-01T04:53:00Z,00000200,00000000,0000.75,0000.21,0000.17,0000.28,0000.19,0000.27,0000.15,-000.10,0000.25,18.8,25.2,02.5,01.7,0670.7,31.1
2021-07-01T04:54:00Z,00000200,00000000,0000.60,0000.12,0000.23,0000.62,0000.25,0000.16,-000.02,-000.03,0000.15,18.8,25.2,02.6,01.8,0670.8,31.1
2021-07-01T04:55:00Z,00000200,00000000,-000.12,0000.14,0000.25,0000.17,0000.28,0000.27,0000.27,0000.16,-000.00,18.9,25.2,02.6,01.7,0670.8,31.1
2021-07-01T04:56:00Z,00000200,00000000,-000.13,0000.31,0000.08,0000.11,0000.24,-000.00,-000.06,0000.20,0000.14,18.9,25.3,02.5,01.7,0670.8,31.1
2021-07-01T04:57:00Z,00000200,40000000,,,,,,,0000.12,0000.01,-000.12,19.0,25.3,02.5,01.7,0670.9,31.1
2021-07-01T04:58:00Z,00000200,60000000,,,,,,,-000.09,-000.04,0000.04,18.8,25.5,02.4,01.6,0669.8,31.1
2021-07-01T04:59:00Z,00000200,20000000,,,,,,,-000.15,-000.08,-000.30,18.8,25.6,02.3,01.5,0669.9,31.1
